Tracking 27107 objects as of 21-Mar-2023
HD Live streaming from Space Station
objects crossing your sky now

STARLINK-3391

Track STARLINK-3391 now!
10-day predictions
STARLINK-3391 is classified as:


NORAD ID: 51117
Int'l Code: 2022-005P
Perigee: 545.7 km
Apogee: 548.1 km
Inclination: 53.2 °
Period: 95.4 minutes
Semi major axis: 6917 km
RCS: Unknown
Launch date: January 19, 2022
Source: United States (US)
Launch site: AIR FORCE EASTERN TEST RANGE (AFETR)
Your satellite tracking list
Your tracking list is empty




NASA's NSSDC Master Catalog

Two Line Element Set (TLE):
1 51117U 22005P   23080.37946822  .00000131  00000-0  26356-4 0  9999
2 51117  53.2152 116.7466 0001713 105.4205 254.6977 15.08840009 65180
Source of the keplerian elements: AFSPC